RYR1183 EGSS-EPMO

Flight info

Callsign RYR1183
Flight time 1h 47m
Altitude 37000
Route CLN P44 RATLO M197 REDFA L620 TACHA DCT RKN L980 HLZ DCT SUBIX DCT OBOKU DCT DOSIX
Aircraft B738/M-SDE2E3FGHIRWXY/LB1

Departure

Time 2026-05-04 21:22
Airport London Stansted Airport (EGSS)

Arrival

Time 2026-05-04 23:09
Airport Warsaw Modlin Airport (EPMO)
Time Latitude Longitude Altitude Speed Heading
2026-05-04 21:04 51.89289 0.25868 347 ft 0 kts 42°
2026-05-04 21:06 51.89287 0.25865 347 ft 2 kts 42°
2026-05-04 21:06 51.89275 0.25848 355 ft 2 kts 36°
2026-05-04 21:07 51.89261 0.25834 350 ft 2 kts 20°
2026-05-04 21:07 51.89245 0.25833 356 ft 2 kts 330°
2026-05-04 21:07 51.89235 0.25845 352 ft 1 kts 312°
2026-05-04 21:07 51.89234 0.25847 351 ft 0 kts 312°
2026-05-04 21:14 51.89264 0.25792 350 ft 14 kts 313°
2026-05-04 21:15 51.89343 0.25656 347 ft 19 kts 310°
2026-05-04 21:15 51.89312 0.25478 343 ft 20 kts 223°
2026-05-04 21:15 51.89201 0.25312 349 ft 23 kts 223°
2026-05-04 21:15 51.89073 0.25118 349 ft 27 kts 222°
2026-05-04 21:16 51.88929 0.24902 344 ft 29 kts 223°
2026-05-04 21:16 51.88802 0.24711 347 ft 25 kts 219°
2026-05-04 21:16 51.88669 0.24510 348 ft 28 kts 223°
2026-05-04 21:16 51.88535 0.24311 342 ft 25 kts 223°
2026-05-04 21:17 51.88438 0.24166 339 ft 20 kts 223°
2026-05-04 21:17 51.88363 0.24053 340 ft 13 kts 223°
2026-05-04 21:17 51.88276 0.23921 338 ft 23 kts 223°
2026-05-04 21:17 51.88175 0.23771 337 ft 2 kts 221°
2026-05-04 21:18 51.88129 0.23703 337 ft 16 kts 222°
2026-05-04 21:18 51.88014 0.23533 334 ft 26 kts 223°
2026-05-04 21:18 51.87903 0.23364 334 ft 24 kts 223°
2026-05-04 21:18 51.87810 0.23222 332 ft 19 kts 224°
2026-05-04 21:19 51.87731 0.23054 336 ft 11 kts 281°
2026-05-04 21:19 51.87796 0.22912 334 ft 13 kts 316°
2026-05-04 21:19 51.87866 0.22801 335 ft 0 kts 312°
2026-05-04 21:20 51.87883 0.22771 334 ft 10 kts 312°
2026-05-04 21:20 51.87963 0.22684 333 ft 10 kts
2026-05-04 21:21 51.87995 0.22721 330 ft 4 kts 43°
2026-05-04 21:21 51.88025 0.22767 330 ft 13 kts 43°
2026-05-04 21:21 51.88329 0.23223 332 ft 104 kts 43°
2026-05-04 21:21 51.89058 0.24297 419 ft 172 kts 40°
2026-05-04 21:22 51.90021 0.25743 916 ft 200 kts 41°
2026-05-04 21:22 51.91018 0.27348 1686 ft 204 kts 50°
2026-05-04 21:22 51.91657 0.29399 2412 ft 207 kts 76°
2026-05-04 21:22 51.91618 0.31737 3144 ft 211 kts 104°
2026-05-04 21:23 51.91037 0.33997 3520 ft 227 kts 114°
2026-05-04 21:23 51.90306 0.36386 3694 ft 248 kts 115°
2026-05-04 21:23 51.89516 0.39001 4076 ft 270 kts 115°
2026-05-04 21:23 51.88678 0.41777 4059 ft 274 kts 115°
2026-05-04 21:24 51.87856 0.44537 4041 ft 270 kts 115°
2026-05-04 21:24 51.87055 0.47257 4053 ft 267 kts 113°
2026-05-04 21:24 51.86483 0.50124 4317 ft 270 kts 102°
2026-05-04 21:24 51.86062 0.53099 4948 ft 270 kts 101°
2026-05-04 21:25 51.85647 0.56091 5031 ft 273 kts 102°
2026-05-04 21:25 51.85214 0.59097 5053 ft 275 kts 102°
2026-05-04 21:25 51.84767 0.62078 5071 ft 277 kts 103°
2026-05-04 21:25 51.84297 0.65138 5530 ft 282 kts 103°
2026-05-04 21:26 51.83816 0.68233 5995 ft 286 kts 103°
2026-05-04 21:26 51.83339 0.71349 6037 ft 284 kts 100°
2026-05-04 21:26 51.83254 0.74500 6059 ft 278 kts 83°
2026-05-04 21:26 51.83627 0.77572 6270 ft 281 kts 73°
2026-05-04 21:27 51.84182 0.80630 7118 ft 284 kts 71°
2026-05-04 21:27 51.84766 0.83684 8069 ft 286 kts 72°
2026-05-04 21:27 51.85359 0.86783 8954 ft 291 kts 72°
2026-05-04 21:27 51.85954 0.89929 9880 ft 295 kts 73°
2026-05-04 21:28 51.86552 0.93137 10559 ft 306 kts 73°
2026-05-04 21:28 51.87178 0.96531 10785 ft 332 kts 73°
2026-05-04 21:28 51.87858 1.00251 11072 ft 354 kts 73°
2026-05-04 21:28 51.88561 1.04133 11735 ft 361 kts 73°
2026-05-04 21:29 51.89264 1.08040 12632 ft 363 kts 73°
2026-05-04 21:29 51.89972 1.11996 13479 ft 366 kts 73°
2026-05-04 21:29 51.90685 1.15988 14197 ft 372 kts 74°
2026-05-04 21:29 51.91404 1.20033 14906 ft 375 kts 74°
2026-05-04 21:30 51.92132 1.24134 15547 ft 382 kts 74°
2026-05-04 21:30 51.92867 1.28291 16232 ft 386 kts 74°
2026-05-04 21:30 51.93606 1.32476 16988 ft 389 kts 74°
2026-05-04 21:30 51.94353 1.36719 17633 ft 394 kts 75°
2026-05-04 21:31 51.95361 1.42460 18469 ft 401 kts 75°
2026-05-04 21:31 51.95631 1.44007 18627 ft 403 kts 75°
2026-05-04 21:31 51.96522 1.49108 19339 ft 407 kts 75°
2026-05-04 21:32 51.97296 1.53543 19899 ft 411 kts 75°
2026-05-04 21:32 51.98081 1.58052 20420 ft 416 kts 75°
2026-05-04 21:32 51.98866 1.62573 21061 ft 418 kts 75°
2026-05-04 21:32 51.99658 1.67140 21613 ft 422 kts 75°
2026-05-04 21:33 52.00451 1.71731 22253 ft 423 kts 75°
2026-05-04 21:33 52.01251 1.76377 22673 ft 430 kts 75°
2026-05-04 21:33 52.02056 1.81064 23296 ft 431 kts 75°
2026-05-04 21:33 52.02862 1.85767 23761 ft 436 kts 75°
2026-05-04 21:34 52.03677 1.90537 24179 ft 439 kts 75°
2026-05-04 21:34 52.04492 1.95321 24651 ft 441 kts 75°
2026-05-04 21:34 52.05312 2.00150 25049 ft 445 kts 75°
2026-05-04 21:34 52.06136 2.05011 25453 ft 448 kts 75°
2026-05-04 21:35 52.06964 2.09912 25870 ft 451 kts 75°
2026-05-04 21:35 52.07794 2.14836 26311 ft 453 kts 75°
2026-05-04 21:35 52.08622 2.19765 26711 ft 455 kts 75°
2026-05-04 21:35 52.09456 2.24742 27095 ft 458 kts 75°
2026-05-04 21:36 52.10295 2.29763 27467 ft 461 kts 75°
2026-05-04 21:36 52.11134 2.34804 27835 ft 464 kts 75°
2026-05-04 21:36 52.11979 2.39891 28199 ft 466 kts 76°
2026-05-04 21:36 52.12825 2.45004 28558 ft 469 kts 76°
2026-05-04 21:37 52.13672 2.50137 28936 ft 470 kts 76°
2026-05-04 21:37 52.14521 2.55291 29312 ft 472 kts 76°
2026-05-04 21:37 52.15372 2.60481 29641 ft 475 kts 76°
2026-05-04 21:37 52.16213 2.65622 29944 ft 477 kts 76°
2026-05-04 21:38 52.17068 2.70861 30269 ft 479 kts 76°
2026-05-04 21:38 52.17921 2.76112 30673 ft 477 kts 76°
2026-05-04 21:38 52.18765 2.81311 31125 ft 474 kts 76°
2026-05-04 21:38 52.19605 2.86512 31543 ft 473 kts 76°
2026-05-04 21:39 52.20159 2.89950 31785 ft 473 kts 76°
2026-05-04 21:39 52.21003 2.95198 32143 ft 473 kts 76°
2026-05-04 21:39 52.21833 3.00382 32500 ft 472 kts 77°
2026-05-04 21:39 52.22659 3.05555 32858 ft 471 kts 77°
2026-05-04 21:40 52.23485 3.10735 33196 ft 471 kts 77°
2026-05-04 21:40 52.24307 3.15913 33549 ft 471 kts 77°
2026-05-04 21:40 52.25115 3.21106 33818 ft 472 kts 79°
2026-05-04 21:40 52.25599 3.26399 34097 ft 471 kts 88°
2026-05-04 21:41 52.25588 3.31670 34403 ft 468 kts 94°
2026-05-04 21:41 52.25453 3.37040 34704 ft 467 kts 94°
2026-05-04 21:41 52.25302 3.42278 34934 ft 468 kts 94°
2026-05-04 21:41 52.25148 3.47607 35149 ft 469 kts 94°
2026-05-04 21:42 52.25003 3.52939 35368 ft 470 kts 94°
2026-05-04 21:42 52.24867 3.58265 35630 ft 470 kts 94°
2026-05-04 21:42 52.24736 3.63610 35910 ft 470 kts 94°
2026-05-04 21:42 52.24609 3.68944 36155 ft 470 kts 94°
2026-05-04 21:43 52.24482 3.74264 36402 ft 470 kts 94°
2026-05-04 21:43 52.24353 3.79590 36639 ft 470 kts 94°
2026-05-04 21:43 52.24222 3.84928 36881 ft 470 kts 94°
2026-05-04 21:43 52.24088 3.90268 37028 ft 472 kts 94°
2026-05-04 21:44 52.23949 3.95641 36995 ft 475 kts 94°
2026-05-04 21:44 52.23666 4.06375 37001 ft 472 kts 94°
2026-05-04 21:45 52.23377 4.16991 36998 ft 466 kts 94°
2026-05-04 21:45 52.23078 4.27558 37005 ft 466 kts 94°
2026-05-04 21:46 52.22771 4.38052 36995 ft 465 kts 94°
2026-05-04 21:46 52.22454 4.48607 36995 ft 466 kts 95°
2026-05-04 21:47 52.22127 4.59159 36984 ft 466 kts 95°
2026-05-04 21:47 52.21790 4.69736 37024 ft 467 kts 95°
2026-05-04 21:48 52.21444 4.80322 37024 ft 468 kts 95°
2026-05-04 21:48 52.21087 4.90926 37017 ft 469 kts 95°
2026-05-04 21:49 52.20720 5.01552 37007 ft 469 kts 95°
2026-05-04 21:49 52.20344 5.12169 36999 ft 470 kts 95°
2026-05-04 21:50 52.19956 5.22822 36991 ft 470 kts 95°
2026-05-04 21:50 52.19560 5.33450 36997 ft 471 kts 95°
2026-05-04 21:51 52.19154 5.44102 36986 ft 471 kts 96°
2026-05-04 21:51 52.18738 5.54754 37002 ft 470 kts 96°
2026-05-04 21:52 52.18314 5.65347 36974 ft 470 kts 96°
2026-05-04 21:52 52.17879 5.75978 36973 ft 470 kts 96°
2026-05-04 21:53 52.17435 5.86621 36974 ft 470 kts 96°
2026-05-04 21:53 52.16980 5.97260 36962 ft 470 kts 96°
2026-05-04 21:54 52.16517 6.07883 36976 ft 470 kts 97°
2026-05-04 21:54 52.16044 6.18520 36977 ft 471 kts 97°
2026-05-04 21:55 52.15561 6.29151 36982 ft 471 kts 97°
2026-05-04 21:55 52.15071 6.39731 36985 ft 471 kts 97°
2026-05-04 21:56 52.14568 6.50375 36979 ft 471 kts 97°
2026-05-04 21:56 52.14057 6.61016 36983 ft 471 kts 97°
2026-05-04 21:57 52.13536 6.71661 36978 ft 472 kts 97°
2026-05-04 21:57 52.13440 6.82366 36983 ft 475 kts 87°
2026-05-04 21:58 52.14066 6.93085 36961 ft 476 kts 87°
2026-05-04 21:58 52.14638 7.03767 36976 ft 476 kts 88°
2026-05-04 21:59 52.15173 7.14531 36986 ft 477 kts 88°
2026-05-04 21:59 52.15704 7.25301 36977 ft 477 kts 88°
2026-05-04 22:00 52.16231 7.36092 36981 ft 478 kts 88°
2026-05-04 22:00 52.16747 7.46890 36985 ft 478 kts 88°
2026-05-04 22:01 52.17255 7.57703 36972 ft 479 kts 88°
2026-05-04 22:01 52.17751 7.68523 36966 ft 479 kts 89°
2026-05-04 22:02 52.18134 7.79372 36974 ft 479 kts 89°
2026-05-04 22:02 52.18544 7.90138 36955 ft 479 kts 89°
2026-05-04 22:03 52.18977 8.00994 36968 ft 479 kts 89°
2026-05-04 22:03 52.19390 8.11848 36970 ft 479 kts 89°
2026-05-04 22:04 52.19790 8.22722 36979 ft 480 kts 89°
2026-05-04 22:04 52.20183 8.33588 36975 ft 480 kts 89°
2026-05-04 22:05 52.20585 8.44451 36953 ft 480 kts 89°
2026-05-04 22:05 52.20978 8.55252 36964 ft 480 kts 89°
2026-05-04 22:06 52.21367 8.66126 36973 ft 481 kts 89°
2026-05-04 22:06 52.21748 8.77033 36965 ft 482 kts 89°
2026-05-04 22:07 52.22123 8.87940 36967 ft 482 kts 89°
2026-05-04 22:07 52.22651 8.98885 36963 ft 483 kts 87°
2026-05-04 22:08 52.23245 9.09808 36964 ft 483 kts 87°
2026-05-04 22:08 52.23812 9.20676 36969 ft 484 kts 87°
2026-05-04 22:09 52.24353 9.31636 36964 ft 484 kts 88°
2026-05-04 22:09 52.24877 9.42588 36973 ft 484 kts 88°
2026-05-04 22:10 52.25388 9.53532 36971 ft 484 kts 88°
2026-05-04 22:10 52.25891 9.64486 36976 ft 483 kts 88°
2026-05-04 22:11 52.26384 9.75434 36970 ft 483 kts 88°
2026-05-04 22:11 52.26866 9.86376 36976 ft 483 kts 88°
2026-05-04 22:12 52.27337 9.97302 36967 ft 482 kts 88°
2026-05-04 22:12 52.27799 10.08225 36979 ft 482 kts 88°
2026-05-04 22:13 52.28247 10.19084 36987 ft 482 kts 88°
2026-05-04 22:13 52.28688 10.30011 36988 ft 481 kts 88°
2026-05-04 22:14 52.29119 10.40938 36994 ft 481 kts 88°
2026-05-04 22:14 52.29540 10.51864 36990 ft 481 kts 88°
2026-05-04 22:15 52.29947 10.62699 36992 ft 481 kts 88°
2026-05-04 22:15 52.30347 10.73627 36995 ft 481 kts 88°
2026-05-04 22:16 52.30737 10.84547 36996 ft 481 kts 88°
2026-05-04 22:16 52.31117 10.95474 36972 ft 481 kts 88°
2026-05-04 22:17 52.31487 11.06388 36983 ft 481 kts 88°
2026-05-04 22:17 52.31847 11.17331 36981 ft 481 kts 89°
2026-05-04 22:18 52.32194 11.28171 36977 ft 481 kts 89°
2026-05-04 22:18 52.32534 11.39100 36975 ft 481 kts 89°
2026-05-04 22:19 52.32864 11.50027 36964 ft 481 kts 89°
2026-05-04 22:19 52.33130 11.59106 36969 ft 480 kts 89°
2026-05-04 22:20 52.33440 11.70027 36972 ft 480 kts 89°
2026-05-04 22:20 52.33741 11.80955 36969 ft 480 kts 89°
2026-05-04 22:21 52.34030 11.91794 36967 ft 480 kts 89°
2026-05-04 22:21 52.34310 12.02699 36957 ft 480 kts 89°
2026-05-04 22:22 52.34580 12.13608 36962 ft 479 kts 89°
2026-05-04 22:22 52.34840 12.24514 36960 ft 479 kts 89°
2026-05-04 22:23 52.35091 12.35436 36968 ft 479 kts 89°
2026-05-04 22:23 52.35329 12.46272 36970 ft 480 kts 89°
2026-05-04 22:24 52.35559 12.57175 36958 ft 480 kts 90°
2026-05-04 22:24 52.35779 12.68109 36955 ft 481 kts 90°
2026-05-04 22:25 52.35990 12.79068 36945 ft 481 kts 90°
2026-05-04 22:25 52.36190 12.90013 36944 ft 482 kts 90°
2026-05-04 22:26 52.36381 13.00981 36935 ft 482 kts 90°
2026-05-04 22:26 52.36561 13.11889 36952 ft 482 kts 90°
2026-05-04 22:27 52.36731 13.22846 36965 ft 482 kts 90°
2026-05-04 22:27 52.36891 13.33817 36966 ft 482 kts 90°
2026-05-04 22:28 52.37041 13.44763 36968 ft 481 kts 90°
2026-05-04 22:28 52.37181 13.55724 36960 ft 481 kts 90°
2026-05-04 22:29 52.37310 13.66664 36966 ft 480 kts 90°
2026-05-04 22:29 52.37429 13.77604 36966 ft 480 kts 90°
2026-05-04 22:30 52.37539 13.88539 36964 ft 480 kts 90°
2026-05-04 22:30 52.37637 13.99383 36963 ft 480 kts 90°
2026-05-04 22:31 52.37726 14.10306 36954 ft 479 kts 90°
2026-05-04 22:31 52.37805 14.21230 36962 ft 479 kts 90°
2026-05-04 22:32 52.37874 14.32164 36957 ft 480 kts 91°
2026-05-04 22:32 52.37933 14.43105 36962 ft 481 kts 91°
2026-05-04 22:33 52.37983 14.53987 36956 ft 481 kts 91°
2026-05-04 22:33 52.37952 14.64951 36958 ft 481 kts 93°
2026-05-04 22:34 52.37666 14.75916 36953 ft 482 kts 94°
2026-05-04 22:34 52.37336 14.86885 36954 ft 482 kts 94°
2026-05-04 22:35 52.37028 14.97851 36956 ft 483 kts 94°
2026-05-04 22:35 52.36731 15.08837 36958 ft 483 kts 94°
2026-05-04 22:36 52.36429 15.19825 36951 ft 483 kts 94°
2026-05-04 22:36 52.36116 15.30812 36954 ft 483 kts 94°
2026-05-04 22:37 52.35792 15.41769 36957 ft 482 kts 94°
2026-05-04 22:37 52.35460 15.52651 36958 ft 482 kts 94°
2026-05-04 22:38 52.35117 15.63579 36950 ft 481 kts 94°
2026-05-04 22:38 52.34763 15.74496 36951 ft 480 kts 94°
2026-05-04 22:39 52.34401 15.85393 36952 ft 480 kts 94°
2026-05-04 22:39 52.34028 15.96294 36950 ft 480 kts 95°
2026-05-04 22:40 52.33644 16.07202 36942 ft 479 kts 94°
2026-05-04 22:40 52.33252 16.18081 36950 ft 480 kts 94°
2026-05-04 22:41 52.32849 16.28976 36949 ft 480 kts 95°
2026-05-04 22:41 52.32435 16.39881 36950 ft 481 kts 95°
2026-05-04 22:42 52.32011 16.50802 36946 ft 481 kts 95°
2026-05-04 22:42 52.31580 16.61663 36940 ft 482 kts 95°
2026-05-04 22:43 52.31135 16.72596 36941 ft 482 kts 95°
2026-05-04 22:43 52.30677 16.83584 36392 ft 488 kts 95°
2026-05-04 22:43 52.30444 16.89102 35859 ft 485 kts 95°
2026-05-04 22:44 52.30209 16.94594 35223 ft 485 kts 95°
2026-05-04 22:44 52.29970 17.00108 34579 ft 485 kts 95°
2026-05-04 22:44 52.29729 17.05615 33906 ft 486 kts 95°
2026-05-04 22:44 52.29486 17.11120 33139 ft 487 kts 95°
2026-05-04 22:45 52.29239 17.16647 32405 ft 487 kts 95°
2026-05-04 22:45 52.28743 17.27576 31385 ft 478 kts 95°
2026-05-04 22:45 52.28495 17.32965 30877 ft 474 kts 95°
2026-05-04 22:46 52.28250 17.38238 30413 ft 470 kts 95°
2026-05-04 22:46 52.28001 17.43536 29909 ft 466 kts 95°
2026-05-04 22:46 52.27752 17.48779 29346 ft 462 kts 95°
2026-05-04 22:46 52.27503 17.53980 28845 ft 456 kts 95°
2026-05-04 22:47 52.27255 17.59113 28339 ft 451 kts 95°
2026-05-04 22:47 52.27008 17.64192 27849 ft 447 kts 95°
2026-05-04 22:47 52.26760 17.69228 27350 ft 442 kts 95°
2026-05-04 22:47 52.26513 17.74216 26867 ft 438 kts 95°
2026-05-04 22:48 52.26266 17.79145 26382 ft 435 kts 96°
2026-05-04 22:48 52.26019 17.84045 25899 ft 431 kts 96°
2026-05-04 22:48 52.25772 17.88909 25431 ft 428 kts 96°
2026-05-04 22:48 52.25525 17.93742 24959 ft 425 kts 96°
2026-05-04 22:49 52.25290 17.98530 24491 ft 422 kts 94°
2026-05-04 22:49 52.25380 18.03308 24149 ft 418 kts 83°
2026-05-04 22:49 52.25763 18.07980 23827 ft 413 kts 82°
2026-05-04 22:49 52.26169 18.12596 23389 ft 410 kts 82°
2026-05-04 22:50 52.26576 18.17197 22874 ft 407 kts 82°
2026-05-04 22:50 52.26971 18.21762 22394 ft 405 kts 83°
2026-05-04 22:50 52.27354 18.26288 21921 ft 402 kts 83°
2026-05-04 22:50 52.27727 18.30805 21460 ft 399 kts 83°
2026-05-04 22:51 52.28092 18.35281 21010 ft 397 kts 83°
2026-05-04 22:51 52.28450 18.39737 20555 ft 395 kts 83°
2026-05-04 22:51 52.28804 18.44168 20107 ft 393 kts 84°
2026-05-04 22:51 52.29151 18.48525 19661 ft 391 kts 84°
2026-05-04 22:52 52.29498 18.52923 19210 ft 389 kts 84°
2026-05-04 22:52 52.29842 18.57290 18745 ft 388 kts 84°
2026-05-04 22:52 52.30183 18.61651 18286 ft 387 kts 84°
2026-05-04 22:52 52.30523 18.66015 17789 ft 386 kts 84°
2026-05-04 22:53 52.30859 18.70347 17307 ft 384 kts 84°
2026-05-04 22:53 52.31192 18.74657 16844 ft 381 kts 84°
2026-05-04 22:53 52.31522 18.78950 16397 ft 379 kts 84°
2026-05-04 22:53 52.31847 18.83204 15958 ft 376 kts 84°
2026-05-04 22:54 52.32169 18.87437 15513 ft 374 kts 84°
2026-05-04 22:54 52.32488 18.91642 15085 ft 372 kts 84°
2026-05-04 22:54 52.32804 18.95830 14652 ft 370 kts 84°
2026-05-04 22:54 52.33116 18.99999 14220 ft 368 kts 84°
2026-05-04 22:55 52.33422 19.04097 13781 ft 368 kts 84°
2026-05-04 22:55 52.33729 19.08234 13298 ft 366 kts 84°
2026-05-04 22:55 52.34035 19.12357 12843 ft 364 kts 84°
2026-05-04 22:55 52.34336 19.16435 12402 ft 361 kts 84°
2026-05-04 22:56 52.34634 19.20506 11971 ft 359 kts 84°
2026-05-04 22:56 52.34916 19.24506 11682 ft 352 kts 85°
2026-05-04 22:56 52.35134 19.28489 11266 ft 350 kts 86°
2026-05-04 22:56 52.35321 19.32456 10862 ft 348 kts 86°
2026-05-04 22:57 52.35503 19.36395 10537 ft 344 kts 86°
2026-05-04 22:57 52.35682 19.40239 10389 ft 334 kts 86°
2026-05-04 22:57 52.35859 19.43983 10236 ft 326 kts 86°
2026-05-04 22:57 52.36033 19.47626 10092 ft 317 kts 86°
2026-05-04 22:58 52.36203 19.51178 9957 ft 309 kts 86°
2026-05-04 22:58 52.36370 19.54672 9674 ft 307 kts 86°
2026-05-04 22:58 52.36535 19.58136 9375 ft 305 kts 86°
2026-05-04 22:58 52.36698 19.61589 9067 ft 303 kts 86°
2026-05-04 22:59 52.36888 19.64975 8750 ft 303 kts 84°
2026-05-04 22:59 52.37154 19.68386 8443 ft 301 kts 83°
2026-05-04 22:59 52.37437 19.71785 8135 ft 300 kts 83°
2026-05-04 22:59 52.37718 19.75157 7851 ft 298 kts 83°
2026-05-04 23:00 52.37993 19.78519 7562 ft 297 kts 84°
2026-05-04 23:00 52.38262 19.81853 7278 ft 295 kts 84°
2026-05-04 23:00 52.38525 19.85167 7064 ft 291 kts 84°
2026-05-04 23:00 52.38781 19.88423 6827 ft 288 kts 84°
2026-05-04 23:01 52.39033 19.91664 6558 ft 286 kts 84°
2026-05-04 23:01 52.39284 19.94903 6271 ft 286 kts 84°
2026-05-04 23:01 52.39448 19.97038 6083 ft 285 kts 84°
2026-05-04 23:01 52.39694 20.00250 5783 ft 284 kts 84°
2026-05-04 23:02 52.39940 20.03465 5427 ft 285 kts 84°
2026-05-04 23:02 52.40186 20.06706 5002 ft 289 kts 84°
2026-05-04 23:02 52.40427 20.09877 5005 ft 275 kts 84°
2026-05-04 23:02 52.40663 20.13006 4599 ft 279 kts 84°
2026-05-04 23:03 52.40899 20.16173 4207 ft 281 kts 84°
2026-05-04 23:03 52.41040 20.19387 3761 ft 285 kts 86°
2026-05-04 23:03 52.41228 20.22635 3327 ft 288 kts 82°
2026-05-04 23:03 52.41500 20.25865 3099 ft 283 kts 81°
2026-05-04 23:04 52.41784 20.28952 2999 ft 264 kts 80°
2026-05-04 23:04 52.42044 20.31786 2880 ft 239 kts 80°
2026-05-04 23:04 52.42273 20.34315 2891 ft 210 kts 80°
2026-05-04 23:04 52.42475 20.36541 2889 ft 187 kts 80°
2026-05-04 23:05 52.42660 20.38564 2934 ft 174 kts 80°
2026-05-04 23:05 52.42834 20.40469 2983 ft 165 kts 80°
2026-05-04 23:05 52.43002 20.42302 2870 ft 167 kts 80°
2026-05-04 23:05 52.43172 20.44156 2653 ft 160 kts 79°
2026-05-04 23:06 52.43331 20.45893 2477 ft 146 kts 78°
2026-05-04 23:06 52.43476 20.47475 2272 ft 138 kts 78°
2026-05-04 23:06 52.43621 20.49040 2085 ft 139 kts 78°
2026-05-04 23:06 52.43767 20.50614 1900 ft 140 kts 78°
2026-05-04 23:07 52.43911 20.52178 1714 ft 137 kts 78°
2026-05-04 23:07 52.44053 20.53718 1532 ft 137 kts 78°
2026-05-04 23:07 52.44197 20.55268 1349 ft 138 kts 79°
2026-05-04 23:07 52.44341 20.56817 1168 ft 140 kts 79°
2026-05-04 23:08 52.44488 20.58399 985 ft 140 kts 80°
2026-05-04 23:08 52.44633 20.59961 796 ft 141 kts 80°
2026-05-04 23:08 52.44781 20.61546 613 ft 140 kts 80°
2026-05-04 23:08 52.44933 20.63125 420 ft 140 kts 83°
2026-05-04 23:09 52.45065 20.64670 352 ft 118 kts 80°
2026-05-04 23:09 52.45157 20.65571 355 ft 45 kts 81°
2026-05-04 23:09 52.45181 20.65943 359 ft 26 kts 104°
2026-05-04 23:09 52.45143 20.66005 351 ft 3 kts 166°
2026-05-04 23:10 52.45120 20.66014 353 ft 3 kts 164°
2026-05-04 23:10 52.45096 20.66025 357 ft 5 kts 164°
2026-05-04 23:10 52.45057 20.66045 358 ft 7 kts 162°
2026-05-04 23:10 52.44998 20.66077 353 ft 10 kts 162°
2026-05-04 23:11 52.44921 20.66120 352 ft 13 kts 169°
2026-05-04 23:11 52.44860 20.66028 351 ft 14 kts 259°
2026-05-04 23:11 52.44842 20.65857 353 ft 16 kts 260°
2026-05-04 23:11 52.44825 20.65660 349 ft 18 kts 262°
2026-05-04 23:12 52.44807 20.65458 359 ft 17 kts 261°
2026-05-04 23:12 52.44763 20.65370 349 ft 0 kts 217°